[[{"header":{"parameterUnit":"m.s-1","parameterCategory":1,"la1":30.2991,"la2":30.254,"lo1":-89.0895,"lo2":-89.0444,"dy":0.0017,"dx":0.0017,"nx":28,"ny":28,"refTime":"2025-04-16T09:00:00:Z","depth":0,"parameterNumber":2,"parameterNumberName":"U-component_of_WINDS"},"data":[0,0,0,0,0,0,0,0,0,0,0,0,0,0,0,0,0,0,0,0,0,0,0,0,0,0,0,0,0,0,0,0,0,0,0,0,0,0,0,0,0,0,0,0,0,0,0,0,0,0,0,0,0,0,0,0,0,0,-4.6789,-4.6789,0,-4.6827,-4.6827,-4.6828,-4.6732,-4.6729,-4.6726,-4.6723,-4.6763,-4.6767,-4.677,0,0,0,0,0,0,0,0,0,0,0,0,0,-4.6635,-4.6639,-4.6789,-4.6789,-4.679,-4.6827,-4.6827,-4.6828,-4.6733,-4.6729,-4.6725,-4.6722,-4.6762,-4.6766,-4.6771,0,0,0,0,0,0,0,0,0,0,0,0,0,-4.6691,-4.664,-4.6789,-4.6747,-4.6743,-4.6827,-4.6827,-4.6828,-4.6733,-4.6729,-4.6724,-4.672,-4.676,-4.6766,-4.6771,-4.6897,0,0,-4.6789,-4.6792,0,0,0,0,0,0,0,0,-4.6688,-4.6696,-4.6753,-4.675,-4.6746,-4.677,-4.6787,-4.6851,-4.6735,-4.6737,-4.6723,-4.6718,-4.6769,-4.6774,-4.6791,-4.6899,-4.6901,-4.679,-4.6793,-4.6796,-4.6797,0,0,0,0,0,0,0,-4.6684,-4.6694,-4.6804,-4.6754,-4.675,-4.6726,-4.6729,-4.6799,-4.6778,-4.6737,-4.673,-4.6736,-4.6766,-4.6785,-4.6791,-4.6901,-4.6789,-4.6795,-4.6798,-4.68,-4.7116,-4.7121,0,0,0,0,0,0,-4.6685,-4.6692,-4.6803,-4.6805,-4.6705,-4.6733,-4.6736,-4.6767,-4.6777,-4.6774,-4.6739,-4.6731,-4.6778,-4.6784,-4.6792,-4.6941,-4.6796,-4.6801,-4.6804,-4.7111,-4.7117,-4.7122,0,0,0,0,0,0,-4.6682,-4.6696,-4.6801,-4.6746,-4.6758,-4.674,-4.6776,-4.677,-4.6789,-4.6779,-4.6775,-4.6763,-4.6774,-4.6784,-4.6872,-4.6941,-4.6804,-4.6809,-4.7105,-4.7113,-4.712,-4.724,0,0,0,0,0,0,-4.6678,-4.6696,-4.6743,-4.6748,-4.6761,-4.6881,-4.678,-4.6774,-4.6799,-4.6789,-4.68,-4.6797,-4.6772,-4.6864,-4.6878,-4.6947,-4.6813,-4.7099,-4.7109,-4.7117,-4.723,-4.7251,-4.7269,0,0,0,0,0,-4.6673,-4.6775,-4.6746,-4.676,-4.682,-4.6885,-4.6892,-4.6861,-4.6805,-4.6853,-4.6847,-4.6797,-4.6931,-4.6874,-4.6888,-4.696,-4.7095,-4.7106,-4.7117,-4.7221,-4.7247,-4.7268,0,0,0,0,0,0,-4.6779,-4.6775,-4.6743,-4.6849,-4.6868,-4.6869,-4.6928,-4.6888,-4.6923,-4.6912,-4.6871,-4.6874,-4.6971,-4.6974,-4.691,-4.7083,-4.7003,-4.7018,-4.7078,-4.7102,-4.7121,-4.7119,-4.6818,0,0,0,0,0,-4.6814,-4.6867,-4.6861,-4.6956,-4.6967,-4.6946,-4.6973,-4.6947,-4.6965,-4.6972,-4.6972,-4.6992,-4.7038,-4.707,-4.7112,-4.7229,-4.7231,-4.7286,-4.7305,-4.7321,-4.7335,-4.7399,-4.7424,-4.7159,-4.7159,-4.7158,0,0,-4.6889,-4.6893,-4.6929,-4.6977,-4.6988,-4.7044,-4.6953,-4.7016,-4.7057,-4.6982,-4.7065,-4.7066,-4.7085,-4.7189,-4.7235,-4.7195,-4.7408,-4.7335,-4.7348,-4.7353,-4.7413,-4.7438,-4.746,-4.7166,-4.7165,-4.7164,0,0,-4.7053,-4.7061,-4.7142,-4.7155,-4.7174,-4.7159,-4.7179,-4.7186,-4.7183,-4.7266,-4.7211,-4.726,-4.734,-4.7357,-4.7376,-4.7547,-4.7504,-4.7562,-4.7663,-4.7726,-4.7747,-4.7765,-4.7828,-4.7851,-4.7575,-4.7575,-4.7575,0,-4.7143,-4.7225,-4.7188,-4.7255,-4.7279,-4.7212,-4.7294,-4.7309,-4.7341,-4.7359,-4.7313,-4.7414,-4.7422,-4.7529,-4.7571,-4.7588,-4.761,-4.7561,-4.7747,-4.7765,-4.7782,-4.7841,-4.7865,-4.7582,-4.7582,-4.7581,-4.758,0,-4.7336,-4.7394,-4.7457,-4.7489,-4.7519,-4.7594,-4.7569,-4.7603,-4.7575,-4.7565,-4.7652,-4.7659,-4.7702,-4.7725,-4.7698,-4.783,-4.7804,-4.7754,-4.7673,-4.7815,-4.787,-4.7893,-4.7593,-4.759,-4.7588,-4.7586,0,0,-4.7569,-4.758,-4.7604,-4.7619,-4.7635,-4.7679,-4.775,-4.7792,-4.7824,-4.7848,-4.7908,-4.7978,-4.7931,-4.7953,-4.7926,-4.7981,-4.8119,-4.7924,-4.7923,-4.7961,-4.8267,-4.8307,-4.8334,-4.8089,-4.8093,-4.8097,-4.8266,0,-4.7733,-4.7856,-4.7825,-4.7947,-4.8001,-4.7939,-4.8001,-4.8018,-4.8011,-4.8056,-4.8048,-4.8099,-4.8032,-4.8045,-4.8097,-4.8091,-4.818,-4.8078,-4.8146,-4.8149,-4.8145,-4.8362,-4.8404,-4.8564,-4.8287,-4.8291,-4.8293,0,-4.7941,-4.7974,-4.8102,-4.811,-4.8131,-4.8188,-4.8224,-4.8267,-4.8285,-4.8277,-4.8301,-4.8264,-4.8335,-4.8253,-4.8351,-4.8283,-4.8309,-4.831,-4.8316,-4.8322,-4.8231,-4.8377,-4.8613,-4.8638,-4.8327,-4.8324,-4.8322,0,-4.8101,-4.8176,-4.8263,-4.8277,-4.8288,-4.833,-4.8336,-4.835,-4.8377,-4.8409,-4.8427,-4.8467,-4.849,-4.8522,-4.8497,-4.8439,-4.86,-4.8515,-4.8596,-4.8597,-4.8634,-4.8633,-4.8881,-4.8648,-4.8647,-4.8647,-4.8646,0,-4.8288,-4.837,-4.8335,-4.8389,-4.8478,-4.8442,-4.8531,-4.853,-4.8543,-4.8596,-4.8544,-4.8595,-4.8557,-4.8605,-4.8586,-4.8672,-4.8681,-4.8677,-4.8672,-4.8683,-4.8684,-4.8701,-4.869,-4.8653,-4.8652,-4.8651,-4.865,0,-4.8483,-4.8463,-4.8553,-4.8556,-4.8559,-4.8625,-4.8628,-4.8678,-4.8667,-4.8735,-4.8748,-4.8732,-4.8785,-4.8763,-4.882,-4.8807,-4.8917,-4.8896,-4.8912,-4.8907,-4.899,-4.8983,-4.9259,-4.9294,-4.9037,-4.9039,-4.9041,0,-4.8605,-4.8666,-4.8676,-4.8708,-4.8718,-4.8769,-4.8798,-4.8764,-4.8796,-4.8821,-4.8869,-4.8918,-4.8955,-4.9044,-4.9038,-4.9081,-4.9061,-4.9155,-4.9068,-4.9078,-4.9065,-4.9063,-4.907,-4.9173,-4.9176,-4.9179,-4.9181,0,-4.8825,-4.8812,-4.8854,-4.8894,-4.8929,-4.8959,-4.8984,-4.9013,-4.898,-4.9019,-4.9073,-4.9102,-4.916,-4.9211,-4.9249,-4.9256,-4.9214,-4.9208,-4.9229,-4.9243,-4.9251,-4.925,-4.8962,-4.9202,-4.92,-4.9198,-4.9197,-4.9196,-4.8988,-4.904,-4.9056,-4.9105,-4.912,-4.9145,-4.9193,-4.9188,-4.9233,-4.9278,-4.9254,-4.9318,-4.9335,-4.9383,-4.9396,-4.9446,-4.9409,-4.944,-4.9448,-4.9456,-4.9468,-4.9241,-4.9452,-4.9451,-4.9451,-4.945,-4.945,0,-4.9207,-4.9213,-4.9259,-4.9296,-4.9336,-4.9292,-4.9317,-4.9354,-4.941,-4.943,-4.9468,-4.9531,-4.9579,-4.9577,-4.9621,-4.9662,-4.9644,-4.9675,-4.9673,-4.9676,-4.9497,-4.9475,-4.9689,-4.9689,-4.9689,-4.9689,-4.9689,-4.9689,-4.9325,-4.9412,-4.9401,-4.9495,-4.9501,-4.9563,-4.9582,-4.9605,-4.962,-4.9693,-4.9733,-4.9731,-4.9742,-4.9787,-4.983,-4.9827,-4.9847,-4.9886,-4.9878,-4.9712,-4.9688,-4.9665,-4.9645,-4.989,-4.9891,-5.0052,-5.0053,-5.0055]},{"header":{"parameterUnit":"m.s-1","parameterCategory":1,"la1":30.2991,"la2":30.254,"lo1":-89.0895,"lo2":-89.0444,"dy":0.0017,"dx":0.0017,"nx":28,"ny":28,"refTime":"2025-04-16T09:00:00:Z","depth":0,"parameterNumber":3,"parameterNumberName":"V-component_of_WINDS"},"data":[0,0,0,0,0,0,0,0,0,0,0,0,0,0,0,0,0,0,0,0,0,0,0,0,0,0,0,0,0,0,0,0,0,0,0,0,0,0,0,0,0,0,0,0,0,0,0,0,0,0,0,0,0,0,0,0,0,0,-2.4228,-2.4229,0,-2.4252,-2.4252,-2.4252,-2.4211,-2.4209,-2.4208,-2.4207,-2.423,-2.4231,-2.4233,0,0,0,0,0,0,0,0,0,0,0,0,0,-2.4146,-2.4147,-2.4228,-2.4229,-2.4229,-2.4252,-2.4252,-2.4252,-2.4211,-2.4209,-2.4207,-2.4206,-2.4229,-2.4231,-2.4233,0,0,0,0,0,0,0,0,0,0,0,0,0,-2.4177,-2.4148,-2.4228,-2.4211,-2.421,-2.4252,-2.4252,-2.4252,-2.4211,-2.4209,-2.4207,-2.4205,-2.4228,-2.4231,-2.4234,-2.4293,0,0,-2.4243,-2.4244,0,0,0,0,0,0,0,0,-2.4175,-2.418,-2.4213,-2.4212,-2.4211,-2.4226,-2.4231,-2.4266,-2.4212,-2.4211,-2.4206,-2.4204,-2.423,-2.4233,-2.4242,-2.4295,-2.4296,-2.4243,-2.4245,-2.4246,-2.4247,0,0,0,0,0,0,0,-2.4173,-2.4178,-2.4237,-2.4214,-2.4212,-2.4201,-2.4203,-2.4238,-2.4232,-2.4211,-2.4208,-2.4211,-2.4229,-2.4239,-2.4242,-2.4296,-2.4243,-2.4245,-2.4247,-2.4248,-2.4398,-2.44,0,0,0,0,0,0,-2.4173,-2.4177,-2.4237,-2.4238,-2.4187,-2.4205,-2.4207,-2.4223,-2.4231,-2.423,-2.4213,-2.4209,-2.4235,-2.4239,-2.4242,-2.4313,-2.4246,-2.4248,-2.425,-2.4396,-2.4399,-2.4401,0,0,0,0,0,0,-2.4171,-2.4179,-2.4236,-2.4207,-2.4213,-2.4208,-2.4227,-2.4225,-2.4235,-2.4233,-2.4232,-2.4224,-2.4234,-2.4238,-2.4281,-2.4313,-2.425,-2.4252,-2.4393,-2.4397,-2.44,-2.4454,0,0,0,0,0,0,-2.4169,-2.4178,-2.4202,-2.4208,-2.4215,-2.4275,-2.4229,-2.4227,-2.424,-2.4235,-2.4243,-2.4243,-2.4232,-2.4277,-2.4284,-2.4316,-2.4255,-2.439,-2.4395,-2.4399,-2.4449,-2.4459,-2.4467,0,0,0,0,0,-2.4166,-2.4216,-2.4203,-2.421,-2.4244,-2.4277,-2.4281,-2.4268,-2.4243,-2.4266,-2.4264,-2.4242,-2.4308,-2.4282,-2.4289,-2.4322,-2.4388,-2.4394,-2.4398,-2.4445,-2.4457,-2.4467,0,0,0,0,0,0,-2.4213,-2.4216,-2.4202,-2.4255,-2.4266,-2.427,-2.4298,-2.4281,-2.4299,-2.4294,-2.4277,-2.4279,-2.4325,-2.4328,-2.4298,-2.438,-2.4344,-2.4351,-2.4377,-2.4388,-2.4396,-2.4395,-2.4257,0,0,0,0,0,-2.423,-2.4257,-2.4258,-2.4304,-2.431,-2.4303,-2.4317,-2.4307,-2.4317,-2.4321,-2.4323,-2.4334,-2.4357,-2.4372,-2.4393,-2.4449,-2.445,-2.4475,-2.4484,-2.4491,-2.4498,-2.4527,-2.4538,-2.4418,-2.4418,-2.4418,0,0,-2.4264,-2.4269,-2.4287,-2.4314,-2.4321,-2.4349,-2.4308,-2.4339,-2.4359,-2.4326,-2.4366,-2.4368,-2.4379,-2.4428,-2.445,-2.4432,-2.4531,-2.4498,-2.4504,-2.4506,-2.4533,-2.4545,-2.4555,-2.4421,-2.4421,-2.442,0,0,-2.4341,-2.4348,-2.4387,-2.4395,-2.4407,-2.4402,-2.4411,-2.4417,-2.4417,-2.4457,-2.4433,-2.4456,-2.4496,-2.4505,-2.4515,-2.4594,-2.4574,-2.4601,-2.4647,-2.4676,-2.4686,-2.4694,-2.4722,-2.4733,-2.4607,-2.4607,-2.4607,0,-2.4383,-2.4424,-2.441,-2.4443,-2.4455,-2.4426,-2.4465,-2.4473,-2.4491,-2.45,-2.4479,-2.4529,-2.4534,-2.4585,-2.4604,-2.4613,-2.4623,-2.4601,-2.4685,-2.4694,-2.4701,-2.4728,-2.4739,-2.4611,-2.461,-2.461,-2.461,0,-2.4474,-2.4503,-2.4533,-2.4552,-2.4567,-2.4603,-2.4593,-2.461,-2.4598,-2.4595,-2.4636,-2.4641,-2.4663,-2.4673,-2.4662,-2.4723,-2.4711,-2.4688,-2.4652,-2.4716,-2.4741,-2.4751,-2.4615,-2.4614,-2.4613,-2.4612,0,0,-2.4583,-2.4592,-2.4603,-2.4611,-2.4621,-2.4643,-2.4677,-2.4698,-2.4713,-2.4726,-2.4754,-2.4788,-2.4767,-2.4778,-2.4766,-2.4792,-2.4854,-2.4765,-2.4765,-2.4782,-2.4921,-2.4939,-2.4951,-2.4841,-2.4843,-2.4844,-2.492,0,-2.4659,-2.4719,-2.4707,-2.4765,-2.4791,-2.4764,-2.4793,-2.4803,-2.48,-2.4822,-2.4819,-2.4843,-2.4813,-2.482,-2.4843,-2.4842,-2.4882,-2.4836,-2.4867,-2.4868,-2.4866,-2.4964,-2.4983,-2.5055,-2.493,-2.4932,-2.4933,0,-2.4757,-2.4774,-2.4835,-2.4841,-2.4851,-2.4878,-2.4896,-2.4917,-2.4927,-2.4923,-2.4935,-2.4919,-2.4952,-2.4914,-2.496,-2.4929,-2.494,-2.4941,-2.4943,-2.4946,-2.4905,-2.497,-2.5078,-2.5089,-2.4948,-2.4947,-2.4946,0,-2.4831,-2.4868,-2.491,-2.4917,-2.4924,-2.4944,-2.4948,-2.4955,-2.4968,-2.4984,-2.4992,-2.5011,-2.5022,-2.5037,-2.5025,-2.4999,-2.5073,-2.5034,-2.5071,-2.5071,-2.5088,-2.5087,-2.5199,-2.5095,-2.5095,-2.5094,-2.5094,0,-2.4918,-2.4957,-2.4943,-2.4968,-2.501,-2.4995,-2.5037,-2.5037,-2.5044,-2.5068,-2.5045,-2.5069,-2.5052,-2.5074,-2.5066,-2.5105,-2.5109,-2.5107,-2.5105,-2.511,-2.511,-2.5118,-2.5113,-2.5097,-2.5097,-2.5096,-2.5096,0,-2.5007,-2.5,-2.5043,-2.5046,-2.5048,-2.5079,-2.5081,-2.5104,-2.51,-2.5131,-2.5138,-2.5131,-2.5156,-2.5146,-2.5172,-2.5166,-2.5216,-2.5206,-2.5213,-2.5211,-2.5248,-2.5245,-2.5369,-2.5385,-2.527,-2.5271,-2.5272,0,-2.5064,-2.5093,-2.5099,-2.5114,-2.512,-2.5144,-2.5158,-2.5143,-2.5158,-2.5171,-2.5192,-2.5215,-2.5232,-2.5273,-2.527,-2.529,-2.5281,-2.5323,-2.5283,-2.5288,-2.5282,-2.528,-2.5283,-2.5331,-2.5332,-2.5333,-2.5334,0,-2.5165,-2.516,-2.5181,-2.52,-2.5217,-2.5231,-2.5243,-2.5257,-2.5242,-2.526,-2.5285,-2.5299,-2.5325,-2.5348,-2.5365,-2.5368,-2.5349,-2.5347,-2.5356,-2.5362,-2.5365,-2.5364,-2.5235,-2.5344,-2.5343,-2.5342,-2.5342,-2.5341,-2.524,-2.5265,-2.5273,-2.5297,-2.5304,-2.5316,-2.5338,-2.5336,-2.5357,-2.5378,-2.5367,-2.5397,-2.5404,-2.5425,-2.5431,-2.5453,-2.5437,-2.5451,-2.5454,-2.5458,-2.5463,-2.5361,-2.5456,-2.5456,-2.5456,-2.5455,-2.5455,0,-2.5341,-2.5345,-2.5366,-2.5384,-2.5403,-2.5383,-2.5395,-2.5412,-2.5438,-2.5446,-2.5464,-2.5492,-2.5514,-2.5513,-2.5532,-2.555,-2.5542,-2.5556,-2.5555,-2.5556,-2.5476,-2.5466,-2.5563,-2.5563,-2.5563,-2.5562,-2.5562,-2.5562,-2.5395,-2.5436,-2.5431,-2.5475,-2.5478,-2.5506,-2.5515,-2.5526,-2.5533,-2.5566,-2.5584,-2.5582,-2.5587,-2.5607,-2.5626,-2.5624,-2.5633,-2.5651,-2.5646,-2.5572,-2.5562,-2.5552,-2.5542,-2.5652,-2.5653,-2.5724,-2.5725,-2.5725]}]]